Location: Arlington
(40.6323°N, 74.1651°W)
Time: 23:17:01
(UTC+00:00)

NOAA 11 - Pass Details

Date: 24 February 2020
Orbit: 833 x 849 km, 98.4° (Epoch: 01 April)

Event Time Altitude Azimuth Distance (km) Brightness Sun altitude
Rises 00:03:07 0° 182° (S) 3,380 7.4 -16.4°
Reaches altitude 10° 00:05:34 10° 189° (S) 2,447 6.7 -16.8°
Maximum altitude 00:10:46 45° 261° (W) 1,123 5.3 -17.8°
Drops below altitude 10° 00:15:58 10° 334° (NNW) 2,455 7.0 -18.8°
Sets 00:18:27 0° 341° (NNW) 3,392 7.6 -19.3°
